Regional Weather Roundup
Issued by NWS

Home | Current Version | Previous Version | Graphics & Text | Print | Product List | Glossary On
Versions: 1 2 3 4 5 6 7 8 9 10 11 12 13 14 15 16 17 18 19 20 21 22 23 24 25 26 27 28 29 30 31 32 33 34 35 36 37 38 39 40 41 42 43 44 45 46 47 48 49 50
095
ASUS43 KIND 032209
RWRIN

WEATHER ROUNDUP FOR INDIANA
NATIONAL WEATHER SERVICE INDIANAPOLIS IN
600 PM EDT TUE MAY 03 2016

NOTE: "FAIR" INDICATES FEW OR NO CLOUDS BELOW 12,000 FEET WITH NO
SIGNIFICANT WEATHER AND/OR OBSTRUCTIONS TO VISIBILITY.

* - STATION DOES NOT REPORT WEATHER SUCH AS PRECIPITATION OR FOG.

+ - STATION NOT QUALITY CONTROLLED BY THE NATIONAL WEATHER SERVICE.
    USE DATA WITH CAUTION...ESPECIALLY DEWPOINT AND RELATIVE
    HUMIDITY OBSERVATIONS.

INZ001>003-010>013-019-020-032300-
NORTHWEST INDIANA

CITY           SKY/WX    TMP DP  RH WIND       PRES   REMARKS
GARY /AIRPORT/ PTSUNNY   66  46  48 W14       29.83F
KNOX *+        CLOUDY    64  19  17 W3        29.83S
LA PORTE +     PTSUNNY   65  35  33 W6        29.83F
MICHIGAN CITY+ CLOUDY    63  37  39 W7        29.83F
MONTICELLO +   SUNNY     63  31  30 W5        29.85F
RENSSELAER +   CLOUDY    63  34  34 W6        29.85F
VALPARAISO     CLOUDY    63  38  39 W12       29.84F

$$

LMZ046-743>745-032300-
SOUTHERN LAKE MICHIGAN

STATION/POSITION TIME  TEMP    WIND        PRES    WAVE
                       AIR SEA DIR/SP/G            HT
                 (UTC) (F)     (DEG/KT/KT) (MB)    (FT)
BURNS HARBOR     2100   64        CALM     1011.2F
MICHIGAN CITY    2100   62     240/  1/  1   N/A

$$

INZ004-005-014>016-021>024-032300-
NORTH CENTRAL INDIANA

CITY           SKY/WX    TMP DP  RH WIND       PRES   REMARKS
ELKHART        MOSUNNY   64  43  45 W12       29.83F
GOSHEN         SUNNY     63  39  41 W9        29.83F
LOGANSPORT +   MOSUNNY   59  37  44 CALM      29.86F
PERU/GRISSOM   SUNNY     63  45  51 VRB5      29.84F
ROCHESTER +    SUNNY     64  36  34 W3        29.85S
SOUTH BEND     PTSUNNY   64  34  32 W9        29.83F
WARSAW +       MOSUNNY   63  37  39 W6        29.84S

$$

INZ006>009-017-018-025>027-032300-
NORTHEAST INDIANA

CITY           SKY/WX    TMP DP  RH WIND       PRES   REMARKS
ANGOLA *+      MOSUNNY   63  37  39 W7        29.82S
AUBURN +       CLOUDY    61  37  41 SW5       29.84F
FORT WAYNE     MOSUNNY   62  43  49 SW6       29.85F
HUNTINGTON +   PTSUNNY   60  41  49 CALM      29.85F

$$

INZ028-029-035-036-043>045-051>053-032300-
WEST CENTRAL INDIANA

CITY           SKY/WX    TMP DP  RH WIND       PRES   REMARKS
CRAWFORDSVL +  MOSUNNY   62  41  46 N6        29.88F
GREENCASTLE +  MOSUNNY   61  41  48 N8        29.89F
LAFAYETTE      PTSUNNY   62  37  39 NW8       29.85F
TERRE HAUTE    MOSUNNY   65  38  36 N9        29.89F

$$

INZ030>032-037>040-046>048-054>057-064-065-032300-
CENTRAL INDIANA

CITY           SKY/WX    TMP DP  RH WIND       PRES   REMARKS
CP ATTERBURY + PTSUNNY   59  46  63 W6        29.90F
COLUMBUS       PTSUNNY   57  50  77 CALM      29.90F
FISHERS *+     MOSUNNY   59  48  67 NW7       29.88
FRANKFORT +      N/A     63  22  20 CALM      29.88F
GREENWOOD *+   CLOUDY    59  48  67 W3        29.89F
INDIANAPOLIS   PTSUNNY   62  43  49 NW9       29.88F
-EAGLE CREEK   PTSUNNY   61  42  49 NW7       29.88F
KOKOMO *+      CLOUDY    63  45  51 W8        29.86F
MARION +       PTSUNNY   60  46  59 W8        29.88S
SHELBYVILLE    CLOUDY    61  46  57 W7        29.88F
ZIONSVILLE +   PTSUNNY   60  44  55 W5        29.89F

$$

INZ033-034-041-042-049-050-058-059-032300-
EAST CENTRAL INDIANA

CITY           SKY/WX    TMP DP  RH WIND       PRES   REMARKS
MUNCIE         PTSUNNY   60  45  57 W6        29.87F

$$

INZ060-061-067>069-081>083-085>088-032300-
SOUTHWEST INDIANA

CITY           SKY/WX    TMP DP  RH WIND       PRES   REMARKS
EVANSVILLE     PTSUNNY   64  43  46 NW8       29.93F
HUNTINGBURG *+ CLOUDY    59  46  63 W7        29.93S
WASHINGTON +   PTSUNNY   62  44  52 NW7       29.91S

$$

INZ062-063-066-070>080-084-089>092-032300-
SOUTH CENTRAL AND SOUTHEAST INDIANA

CITY           SKY/WX    TMP DP  RH WIND       PRES   REMARKS
BLOOMINGTON    CLOUDY    60  43  53 VRB3      29.90F
MADISON *+     CLOUDY    55  46  71 N3        29.92S
SEYMOUR +      CLOUDY    59  48  67 CALM      29.90F

$$





USA.gov is the U.S. government's official web portal to all federal, state and local government web resources and services.